Date,TemperatureHighF,TemperatureAvgF,TemperatureLowF,DewpointHighF,DewpointAvgF,DewpointLowF,HumidityHigh,HumidityAvg,HumidityLow,PressureMaxIn,PressureMinIn,WindSpeedMaxMPH,WindSpeedAvgMPH,GustSpeedMaxMPH,PrecipitationSumIn
2013-1-1,72.6,27.2,3.9,30.5,14.5,-3.4,82,63,21,26.98,26.88,21,3,21,36.18
2013-1-2,47.1,27.8,22.1,29.9,19.0,-17.2,79,70,43,27.16,26.92,26,8,26,0.00
2013-1-3,60.4,25.5,5.0,26.0,11.8,-1.5,77,59,25,27.16,26.99,10,1,13,0.00
2013-1-4,75.3,27.9,9.1,28.2,9.8,0.4,70,54,17,26.99,26.91,4,0,4,0.00
2013-1-7,54.3,34.7,20.3,32.0,18.8,10.8,100,54,36,26.84,0.00,17,2,17,36.18
2013-1-8,70.3,37.5,23.5,39.7,23.9,-25.3,79,60,27,27.01,26.57,19,4,19,0.00
2013-1-9,78.0,41.4,17.7,38.6,23.1,12.0,81,53,23,27.01,26.73,21,4,21,35.54
2013-1-10,50.3,39.9,32.1,25.7,22.0,0.0,77,50,32,26.73,26.40,35,10,35,0.00
2013-1-11,32.0,18.6,9.1,26.6,11.5,-1.1,82,74,62,26.75,26.41,29,13,29,0.00
2013-1-12,15.9,10.8,7.8,5.6,1.7,-28.8,72,66,61,27.00,26.73,28,9,28,0.00
2013-1-13,51.0,14.4,0.5,19.1,1.2,-10.0,72,57,24,27.02,26.96,15,1,15,0.00
2013-1-14,63.6,15.3,-1.6,20.8,-0.5,-11.8,69,53,18,27.04,26.92,10,1,10,0.00
2013-1-15,41.7,24.8,-2.0,30.0,13.4,-11.8,76,62,46,26.92,26.77,28,3,28,0.00
2013-1-16,66.0,42.8,27.6,28.8,23.1,-13.4,65,48,21,27.12,26.80,22,5,22,0.00
2013-1-17,77.7,37.7,20.4,36.7,21.5,13.1,77,55,22,27.20,26.90,16,2,16,0.00
2013-1-18,87.6,43.6,24.4,36.6,18.6,13.0,66,42,11,26.90,26.77,12,1,12,0.00
2013-1-19,63.3,38.0,21.9,27.2,19.9,15.2,76,51,24,27.11,26.81,23,6,23,0.00
2013-1-20,32.0,19.1,14.1,32.0,10.9,-30.6,100,70,55,27.24,26.94,23,6,23,0.00
2013-1-21,34.3,16.9,10.9,32.0,8.3,5.4,100,69,45,27.18,26.97,10,2,10,0.00
2013-1-23,32.0,11.8,10.9,32.0,7.0,5.9,100,81,79,27.09,0.00,19,11,19,0.00
2013-1-24,38.8,20.7,10.9,32.0,12.8,6.2,100,72,53,27.03,26.91,21,5,21,0.15
2013-1-25,64.9,36.7,17.4,35.1,20.6,10.6,78,55,27,26.99,26.88,13,2,13,0.00
2013-1-26,79.3,42.0,21.2,36.6,22.9,13.9,77,51,18,26.87,26.68,12,1,12,0.00
2013-1-27,62.7,37.0,27.1,35.1,26.4,18.6,84,67,34,26.70,26.58,22,4,22,0.00
2013-1-28,35.2,30.8,22.8,29.0,26.1,17.9,86,83,78,26.74,26.65,12,3,12,0.00
2013-1-29,79.5,30.5,7.5,33.6,17.4,-0.4,84,63,17,26.92,26.63,22,6,22,0.00
2013-1-30,38.3,14.8,2.1,18.0,5.3,-5.5,80,66,41,26.90,26.71,24,2,24,0.00
2013-1-31,20.1,10.1,3.5,10.5,0.8,-4.5,79,66,47,27.11,26.80,26,8,26,0.00
2013-2-1,56.8,30.8,9.6,35.6,21.8,2.4,81,70,42,26.98,26.83,20,3,20,0.00
2013-2-2,69.8,41.4,23.9,32.4,23.2,15.0,75,51,21,27.08,26.97,33,7,33,0.00
2013-2-3,64.2,40.6,21.3,33.4,20.9,14.2,77,50,19,27.06,26.71,26,4,26,0.00
2013-2-4,65.8,37.6,20.6,34.8,21.9,12.9,76,55,27,26.83,26.68,22,2,22,0.00
2013-2-5,84.5,45.0,35.2,38.0,26.6,-30.9,65,51,17,26.89,26.68,16,3,16,0.00
2013-2-6,65.8,37.8,23.5,35.8,21.6,14.6,78,55,25,26.93,26.64,27,3,27,0.00
2013-2-7,82.7,41.5,21.0,33.1,19.5,-11.9,100,47,14,27.00,26.86,13,2,13,0.26
2013-2-8,64.5,35.9,21.9,30.6,19.7,-15.2,72,54,25,26.87,26.73,16,3,16,0.00
2013-2-9,52.7,30.9,20.4,31.2,21.0,13.8,85,68,41,26.76,26.61,21,6,21,0.00
2013-2-10,31.8,28.0,20.1,25.5,20.0,10.9,84,72,63,26.91,26.58,27,12,27,0.00
2013-2-11,69.6,25.7,5.5,27.8,10.9,-1.3,75,56,20,26.95,26.84,12,1,12,0.00
2013-2-12,74.6,35.3,14.1,31.7,16.8,4.8,72,49,18,26.87,26.78,22,3,22,0.00
2013-2-13,61.5,38.0,24.4,29.5,22.9,15.7,72,56,27,26.86,26.67,27,6,27,0.00
2013-2-14,38.4,28.5,13.2,22.1,16.1,4.9,70,60,47,27.15,26.86,29,9,29,0.00
2013-2-15,46.7,27.6,12.3,22.3,11.5,3.6,75,53,27,27.19,26.94,20,6,20,0.00
2013-2-16,68.1,42.8,27.5,30.6,22.8,12.9,66,47,24,26.94,26.71,24,5,24,0.00
2013-2-17,73.9,39.0,24.6,35.3,23.2,16.1,71,57,19,26.71,26.46,29,7,29,0.00
2013-2-18,44.4,29.7,14.1,23.5,16.3,-19.0,71,58,37,27.03,26.68,33,11,33,0.00
2013-2-19,29.1,17.4,11.8,15.2,7.9,3.6,79,67,52,27.06,26.89,22,8,22,0.00
2013-2-20,37.2,23.5,12.0,18.1,11.7,3.2,76,61,39,26.90,26.74,29,13,29,0.00
2013-2-21,33.0,23.7,17.2,23.6,17.4,12.4,82,77,67,26.87,26.80,20,5,20,0.00
2013-2-22,53.7,28.5,15.9,31.7,18.6,-8.9,81,68,40,26.85,26.67,15,2,15,0.00
2013-2-23,65.8,36.9,14.5,27.5,16.3,7.3,75,48,17,26.73,26.57,11,2,11,0.00
2013-2-24,37.7,31.6,18.3,28.7,23.6,11.6,82,72,63,26.98,26.72,50,7,50,0.00
2013-2-25,54.6,31.1,13.6,32.0,14.7,7.2,100,56,21,26.97,26.76,26,4,26,0.23
2013-2-27,50.9,35.3,18.6,32.0,18.0,9.8,100,50,36,27.10,27.04,22,6,22,0.23
2013-2-28,61.8,33.1,11.3,31.6,18.9,-28.6,75,58,27,27.09,27.01,12,2,12,0.23
2013-3-1,60.9,36.8,17.2,26.3,17.2,-14.9,82,49,17,27.14,27.02,19,3,19,0.23
2013-3-2,66.0,47.2,27.6,37.6,26.0,16.2,73,45,29,27.03,26.80,19,3,19,0.23
2013-3-3,64.7,46.7,34.5,33.2,28.2,23.2,73,50,29,26.79,26.47,28,5,28,0.00
2013-3-4,46.9,29.4,17.2,23.4,13.7,4.7,74,54,25,27.06,26.63,38,12,38,0.00
2013-3-5,45.3,25.5,10.0,18.8,10.2,2.5,75,54,32,27.20,27.06,17,5,21,0.23
2013-3-6,50.5,29.4,14.1,32.0,15.0,7.4,100,58,32,27.07,26.74,25,6,25,0.23
2013-3-7,0.0,0.0,0.0,0.0,0.0,0.0,100,100,100,0.00,40.00,0,0,0,0.00
2013-3-8,42.9,39.8,32.0,32.0,29.6,28.7,100,69,57,26.91,0.00,5,4,5,0.00
2013-3-14,84.7,67.0,32.0,37.8,31.6,25.9,100,28,17,27.05,26.85,18,2,18,0.46
2013-3-15,74.1,51.5,32.0,36.4,27.9,4.5,100,43,19,26.95,26.71,24,6,24,0.68
2013-3-16,35.9,30.4,23.9,27.8,23.7,20.6,87,76,60,26.98,26.82,15,6,15,0.00
2013-3-17,51.9,42.7,23.9,40.2,34.4,20.6,100,73,57,26.81,26.31,27,12,27,0.13
2013-3-20,54.6,44.3,32.0,32.0,18.6,11.4,100,39,26,27.05,26.78,30,14,30,0.39
2013-3-21,49.2,34.2,26.7,32.0,22.9,-44.8,100,66,38,26.77,26.57,21,8,21,0.11
2013-3-22,56.8,32.0,16.3,30.9,22.2,-22.0,84,69,32,26.95,26.73,22,4,22,0.00
2013-3-23,47.8,25.0,10.9,24.2,12.9,4.0,77,61,33,27.09,26.96,22,9,22,0.00
2013-3-24,32.0,7.5,4.1,32.0,0.7,-2.6,100,73,71,27.08,27.04,2,0,4,0.00
2013-3-26,46.2,30.6,17.7,32.0,18.1,9.9,100,62,37,26.94,0.00,10,1,10,0.19
2013-4-1,61.7,53.6,24.4,34.6,26.4,18.9,79,35,29,27.08,26.99,17,4,17,0.00
2013-4-2,67.1,54.5,22.6,33.8,25.8,14.3,73,34,23,27.05,26.96,15,4,15,0.00
2013-4-3,81.5,54.9,33.9,38.0,28.7,19.5,69,41,17,27.05,26.83,22,8,22,0.00
2013-4-4,58.8,45.5,31.1,33.3,24.4,17.2,74,46,30,27.06,26.91,21,5,21,0.00
2013-4-5,67.2,48.4,32.7,40.7,28.6,17.2,69,48,30,26.91,26.52,16,5,16,0.00
2013-4-6,73.7,57.6,40.8,44.5,34.4,27.8,80,46,23,26.73,26.64,25,6,25,0.00
2013-4-7,70.8,52.0,39.9,44.9,36.2,19.3,76,57,33,26.72,26.53,13,2,13,0.00
2013-4-8,45.3,33.2,17.4,40.4,27.7,12.9,87,80,70,27.04,26.55,26,3,26,0.00
2013-4-9,23.1,17.1,13.2,13.4,11.5,8.8,83,78,65,27.20,27.03,0,0,0,0.00
2013-4-10,41.7,26.9,17.4,22.9,17.3,10.9,84,68,46,27.12,26.83,21,5,21,0.00
2013-4-11,46.8,29.2,10.0,26.2,16.7,2.5,76,61,38,0.00,40.00,18,5,18,0.00
2013-4-12,48.7,38.2,25.5,34.6,28.9,19.7,79,69,58,26.87,26.81,20,6,20,0.00
2013-4-13,46.9,34.1,20.1,35.3,27.0,14.9,88,76,59,26.83,26.34,20,5,20,0.00
2013-4-14,48.7,34.6,23.3,34.2,26.2,-6.7,89,72,50,26.72,26.35,32,9,32,0.00
2013-4-15,45.6,32.4,21.0,24.8,18.6,13.0,76,58,40,26.99,26.69,24,10,24,0.00
2013-4-16,37.0,29.3,22.2,26.4,21.7,-17.1,82,73,63,27.12,26.96,13,3,13,0.00
2013-4-17,44.0,31.4,25.8,28.4,24.3,21.9,86,76,52,27.12,27.03,18,6,18,0.00
2013-4-18,48.0,32.4,22.4,24.9,20.5,14.1,84,63,38,27.04,26.88,24,8,24,0.00
2013-4-19,50.1,36.6,23.1,34.4,29.0,15.3,85,75,52,26.92,26.84,17,5,17,0.00
2013-4-20,60.0,42.9,29.4,39.3,32.8,24.6,85,69,46,26.86,26.78,14,5,14,0.00
2013-4-21,52.7,42.2,33.0,42.2,34.6,-27.1,86,75,62,27.02,26.81,25,5,25,0.00
2013-4-22,45.6,31.7,17.9,29.5,22.2,-4.4,89,69,45,27.23,26.98,19,3,19,0.00
2013-4-23,58.8,33.5,7.8,26.9,16.3,1.2,80,53,24,27.22,26.96,10,1,10,0.00
2013-4-24,52.7,38.5,24.9,32.8,23.8,3.8,72,57,41,27.01,26.91,24,6,24,0.00
2013-4-25,77.7,53.2,31.2,39.8,29.2,22.2,78,46,17,26.97,26.72,18,3,18,0.00
2013-4-26,81.5,58.4,32.5,39.7,31.2,23.8,70,41,18,27.02,26.86,14,1,14,0.00
2013-4-27,84.7,64.0,38.4,43.4,33.9,26.9,66,38,16,26.99,26.74,20,3,20,0.00
2013-4-28,73.5,58.8,46.5,43.0,37.2,4.0,81,47,28,26.87,26.68,27,7,27,0.00
2013-4-29,79.1,58.7,42.4,45.7,40.1,34.0,87,56,21,26.82,26.33,37,10,37,0.00
2013-4-30,58.6,45.1,36.3,37.2,27.6,-34.8,73,51,31,27.07,26.57,21,8,21,0.00
2013-5-1,55.5,41.0,27.1,23.8,18.7,12.4,60,43,22,27.42,27.05,26,6,26,0.00
2013-5-2,64.0,45.3,21.7,31.7,20.2,11.6,69,40,21,27.45,27.22,13,1,13,0.00
2013-5-3,34.8,33.4,32.3,19.0,18.6,18.2,57,54,51,27.22,27.20,0,0,0,0.00
2013-5-6,77.0,71.3,63.3,38.0,31.7,-26.0,39,23,20,27.00,26.88,19,5,19,0.00
2013-8-27,0.0,0.0,0.0,0.0,0.0,0.0,100,100,100,26.91,26.78,14,6,14,0.00
2013-8-28,0.0,0.0,0.0,0.0,0.0,0.0,100,100,100,26.95,26.89,12,2,12,0.00
2013-9-3,32.0,32.0,32.0,32.0,30.6,0.0,100,100,100,26.94,0.00,4,0,4,0.00
2013-9-4,32.0,25.8,0.0,32.0,25.5,0.0,100,100,100,27.02,26.93,10,2,10,0.00
2013-9-5,32.0,3.2,0.0,32.0,3.1,0.0,100,100,100,27.04,26.88,0,0,0,0.00
2013-9-6,32.0,27.1,0.0,32.0,26.6,0.0,100,100,100,26.93,26.84,0,0,0,0.00
2013-9-7,32.0,29.6,0.0,32.0,29.0,0.0,100,100,100,26.95,26.86,0,0,0,0.00
2013-9-8,32.0,14.5,0.0,32.0,14.1,0.0,100,100,100,26.74,26.74,0,0,0,0.00
2013-9-9,32.0,9.2,0.0,32.0,8.9,0.0,100,100,100,26.91,26.71,0,0,0,0.00
2013-9-10,32.0,26.3,0.0,32.0,25.8,0.0,100,100,100,27.04,26.89,0,0,0,0.00
2013-9-11,32.0,16.2,0.0,32.0,15.8,0.0,100,100,100,27.13,27.04,0,0,0,0.00
2013-9-12,32.0,31.8,0.0,32.0,27.0,-36.7,100,91,15,27.21,27.10,0,0,0,0.00
2013-9-13,32.0,27.5,0.0,-10.4,-14.3,-36.7,15,15,15,27.11,26.82,0,0,0,0.00
2013-9-14,32.0,16.3,0.0,19.7,-11.4,-36.7,60,34,15,26.97,26.74,0,0,0,0.00
2013-9-15,32.0,14.3,0.0,19.7,-17.4,-36.7,60,27,15,27.17,26.97,0,0,0,0.00
2013-9-16,32.0,0.4,0.0,-10.4,-36.5,-36.7,15,15,15,27.12,26.82,0,0,0,0.00
2013-9-17,32.0,7.6,0.0,-10.4,-30.4,-36.7,15,15,15,26.83,26.75,0,0,0,0.00
2013-9-18,0.0,0.0,0.0,0.0,0.0,0.0,100,100,100,26.79,26.55,0,0,0,0.00
2013-9-19,0.0,0.0,0.0,0.0,0.0,0.0,100,100,100,27.04,26.79,0,0,0,0.00
2013-9-20,0.0,0.0,0.0,0.0,0.0,0.0,100,100,100,27.04,27.01,0,0,0,0.00
2013-9-22,0.0,0.0,0.0,0.0,0.0,0.0,100,100,100,0.00,40.00,0,0,0,0.00
2013-9-23,0.0,0.0,0.0,0.0,-7.0,-36.7,100,84,15,26.85,26.55,0,0,0,0.00
2013-9-24,0.0,0.0,0.0,-36.7,-36.7,-36.7,15,15,15,26.92,26.71,0,0,0,0.00
2013-9-25,0.0,-7.7,-20.0,-36.7,-42.9,-53.2,15,15,15,26.70,26.60,0,0,0,0.00
2013-9-26,55.9,23.7,0.0,40.0,17.1,0.0,100,81,54,26.82,26.71,19,4,19,0.00
2013-9-27,51.4,46.6,43.7,40.0,38.4,-4.2,82,74,62,26.87,26.78,20,6,20,0.00
2013-9-28,79.5,56.8,43.8,47.7,37.4,-4.2,82,53,26,26.86,26.81,17,3,17,0.00
2013-9-29,85.1,63.8,39.3,49.0,38.3,25.7,80,44,20,26.83,26.60,22,3,22,0.00
2013-9-30,88.3,66.2,48.0,49.4,40.0,31.0,64,42,19,26.75,26.48,25,6,25,0.00
2013-10-1,83.1,60.8,37.2,42.1,32.8,11.4,66,37,20,26.93,26.74,29,5,29,0.00
2013-10-2,66.7,58.1,49.2,39.4,35.1,30.8,59,43,32,26.92,26.71,26,8,26,0.00
2013-10-3,52.7,48.9,44.9,44.1,39.9,-18.6,85,72,56,26.98,26.84,23,6,23,0.00
2013-10-4,98.7,45.2,-20.3,98.4,41.3,-57.0,99,87,12,27.00,26.92,25,8,25,0.00
2013-10-7,65.4,54.2,32.0,45.5,39.9,32.0,100,59,48,26.77,0.01,12,3,12,0.00
2013-10-8,69.4,53.2,40.2,41.0,34.7,30.1,70,51,34,26.78,26.58,14,3,14,0.00
2013-10-9,64.0,52.7,32.0,37.0,34.4,31.1,100,51,35,26.95,26.86,11,3,11,0.38
2013-10-10,40.8,39.0,37.2,32.4,31.8,31.0,78,75,71,26.86,26.80,6,0,6,0.00
2013-10-12,67.2,50.7,32.0,35.8,33.0,1.9,100,54,30,27.12,27.01,8,2,8,0.00
2013-10-13,41.5,37.8,33.6,34.5,31.2,4.6,82,77,74,27.11,27.07,7,0,7,0.00
2013-10-14,0.0,0.0,0.0,0.0,0.0,0.0,100,100,100,27.00,26.90,20,9,20,0.00
2013-10-15,98.7,27.7,-20.3,94.2,23.6,-24.1,100,87,30,27.13,26.99,22,8,22,0.00
2013-10-16,73.4,45.8,35.4,38.2,30.5,-5.2,78,59,24,27.03,26.83,12,2,12,0.00
2013-10-17,47.8,40.4,31.6,34.7,29.4,-6.3,77,66,46,27.04,26.88,20,6,20,0.00
2013-10-18,47.6,38.0,31.2,35.7,28.9,-6.6,81,70,12,27.01,26.82,20,4,20,0.00
2013-10-19,74.4,51.1,35.4,42.8,33.5,-29.1,79,54,26,26.82,26.71,15,2,15,0.00
2013-10-20,52.3,44.7,39.7,38.8,35.4,-4.4,81,71,50,26.95,26.72,20,6,20,0.00
2013-10-21,58.8,46.0,40.2,43.5,15.9,-40.5,79,39,12,26.95,26.83,20,4,20,0.00
2013-10-22,55.5,47.8,42.4,43.3,38.1,-4.2,82,70,50,26.99,26.89,17,4,17,0.00
2013-10-23,51.4,44.5,35.4,41.4,36.9,-3.4,85,75,67,27.15,26.88,21,6,21,0.00
2013-10-24,70.8,41.8,33.8,45.4,33.6,-3.2,86,75,37,27.18,27.07,13,3,13,0.00
2013-10-25,91.9,53.3,31.2,51.3,37.5,-19.8,86,60,21,27.08,26.92,20,4,20,0.00
2013-10-26,75.9,49.2,32.0,41.0,32.2,24.7,76,54,28,27.16,26.86,16,3,16,0.00
2013-10-27,78.8,50.4,33.8,45.5,33.5,25.9,75,56,23,27.05,26.75,22,4,22,0.00
2013-10-28,37.0,29.4,27.1,28.1,24.8,-18.8,88,83,70,27.19,27.04,20,6,20,0.00
2013-10-29,28.7,27.6,27.5,25.6,24.3,-19.2,89,89,88,27.12,26.86,2,0,2,0.00
2013-10-30,98.7,33.1,-20.3,98.4,18.1,-55.8,99,66,13,26.86,26.65,6,0,6,0.00
2013-10-31,98.7,43.7,-20.5,94.2,32.5,-37.9,99,69,14,26.67,26.58,22,4,22,0.00
2013-11-1,60.0,44.2,28.4,36.7,29.0,-4.7,80,57,31,27.01,26.67,36,8,36,0.00
2013-11-2,66.9,44.9,26.9,37.9,28.2,19.7,77,55,30,27.01,26.51,30,7,30,0.00
2013-11-3,52.7,45.1,37.9,36.2,30.8,27.4,71,57,43,26.75,26.47,26,5,26,0.00
2013-11-4,76.8,41.7,28.2,37.4,26.0,-27.6,77,56,21,27.00,26.75,12,2,12,0.00
2013-11-5,41.3,30.0,18.6,30.2,24.1,-3.4,86,79,62,27.04,26.96,15,3,15,0.00
2013-11-6,77.5,33.2,16.3,42.3,23.2,11.2,83,70,27,27.17,26.94,10,1,10,0.00
2013-11-7,69.4,37.7,21.3,41.6,27.7,16.7,85,69,35,27.19,26.71,21,4,21,0.00
2013-11-8,67.1,46.3,34.8,39.9,29.3,23.9,81,54,26,26.87,26.55,22,6,22,0.00
2013-11-9,64.7,39.9,28.2,38.5,27.1,20.3,76,61,35,27.17,26.87,23,4,23,0.00
2013-11-10,82.5,45.8,30.0,43.4,29.6,-30.7,82,57,22,27.13,26.96,20,4,20,0.00
2013-11-11,30.0,22.7,18.1,25.2,15.3,11.7,82,73,60,27.46,27.12,54,5,54,0.00
2013-11-12,66.3,34.7,13.1,36.8,23.3,-22.0,84,66,29,27.43,27.02,14,2,14,0.00
2013-11-13,83.3,46.1,24.2,44.2,30.4,18.3,82,59,21,27.03,26.88,16,2,16,0.00
2013-11-14,77.5,47.6,31.6,43.2,30.2,-5.2,79,55,23,26.93,26.69,14,2,14,0.00
2013-11-15,77.1,39.9,26.4,41.8,27.1,19.9,80,63,27,26.69,26.33,10,1,10,0.00
2013-11-16,52.5,35.7,24.4,36.2,26.4,-2.3,83,70,12,26.36,26.26,10,1,10,0.00
2013-11-17,54.5,35.8,23.9,31.1,21.7,-31.3,83,59,31,26.92,26.35,24,5,24,0.00
2013-11-18,63.1,40.6,23.1,33.3,22.3,-6.3,71,51,25,26.95,26.74,14,4,14,0.00
2013-11-19,66.2,42.9,30.5,40.9,28.0,22.1,100,58,31,26.74,26.49,17,1,17,0.49
2013-11-20,38.3,27.0,14.3,29.8,20.3,-27.8,84,76,69,27.16,26.61,29,8,29,0.00
2013-11-21,141.9,14.7,6.0,10.2,5.1,-1.1,73,65,52,27.41,27.15,22,6,22,0.00
2013-11-22,66.7,25.6,4.8,23.2,7.0,-2.5,74,50,16,27.46,27.27,25,4,25,0.00
2013-11-23,41.5,25.1,11.8,19.9,12.7,-19.3,82,60,41,27.46,27.11,21,6,21,0.00
2013-11-24,57.2,39.7,25.5,28.9,20.1,-2.3,63,46,12,27.11,26.81,22,6,22,0.00
2013-11-25,48.0,36.7,31.6,27.2,18.8,14.4,64,49,33,27.16,26.96,21,6,21,0.00
2013-11-26,56.1,30.1,22.2,27.5,17.2,-29.0,76,60,31,27.30,27.05,18,5,18,0.00
2013-11-27,81.1,36.4,19.2,41.9,21.6,12.9,78,59,20,27.06,26.82,22,5,22,0.00
2013-11-28,30.0,23.8,17.7,22.7,18.9,11.3,87,81,71,27.16,26.94,14,4,14,0.00
2013-11-29,84.5,39.3,19.0,43.1,23.0,14.7,85,58,20,26.94,26.88,11,1,11,0.00
2013-11-30,53.0,35.7,22.1,34.0,22.9,-3.4,77,61,43,27.02,26.92,13,1,13,0.00
2013-12-1,79.7,42.9,29.1,42.8,27.5,-10.5,76,57,24,26.97,26.60,15,1,15,0.00
2013-12-2,63.3,39.7,26.6,38.9,29.8,3.3,87,69,38,26.60,26.46,17,3,17,0.00
2013-12-3,31.1,18.9,9.3,27.4,14.0,4.7,86,81,74,26.81,26.52,22,10,22,0.00
2013-12-4,12.0,7.0,1.7,4.9,-0.1,-7.8,82,72,64,27.01,26.76,30,12,30,0.00
2013-12-5,46.9,4.7,-10.6,13.8,-8.3,-19.3,75,57,22,27.18,26.99,14,3,14,0.00
2013-12-6,28.5,-1.9,-12.8,5.4,-14.7,-20.6,72,56,27,27.32,27.17,12,2,12,0.00
2013-12-7,13.8,-4.4,-11.5,-2.2,-14.4,-20.6,70,62,43,27.30,26.92,10,2,10,0.00
2013-12-8,34.3,5.0,-5.6,7.4,-7.8,-14.6,70,57,28,26.97,26.81,10,2,10,0.00
2013-12-9,43.7,11.5,-13.5,32.0,-0.8,-27.7,100,60,25,26.97,26.71,26,5,26,0.00
2013-12-10,39.5,17.6,-0.2,26.4,10.7,-6.2,83,75,50,27.20,26.80,22,6,22,0.00
2013-12-11,32.9,6.4,-1.6,15.8,-0.1,-7.6,80,75,47,27.21,27.14,13,2,13,0.00
2013-12-12,32.0,24.2,21.9,32.0,15.5,-25.6,100,69,59,26.91,26.77,5,0,5,0.00
2013-12-13,34.1,21.0,14.7,23.6,14.3,8.5,80,75,62,26.99,26.75,10,2,10,0.00
2013-12-14,69.6,31.1,10.7,36.3,20.5,5.8,83,67,28,27.03,26.89,6,0,6,0.00
2013-12-15,60.4,41.2,29.1,34.7,27.4,-17.0,72,59,12,26.90,26.78,11,1,11,0.00
2013-12-16,62.4,34.3,21.5,38.5,24.7,17.1,83,69,36,27.04,26.80,12,2,12,0.00
2013-12-17,49.1,34.2,21.5,30.3,24.3,17.0,86,68,47,27.12,26.71,31,5,31,0.00
2013-12-18,83.1,41.0,27.6,41.5,25.3,19.8,82,58,20,26.77,26.63,17,2,17,0.00
2013-12-19,29.4,14.7,-2.3,24.9,9.8,-10.6,88,81,74,26.95,26.75,54,1,54,0.00
2013-12-20,32.0,-3.7,-9.4,32.0,-9.1,-15.4,100,77,74,26.91,26.76,0,0,0,0.00
2014-1-1,30.2,25.4,23.5,21.4,19.4,18.4,83,78,69,27.14,27.04,20,5,20,0.00
2014-1-2,60.4,28.9,15.6,33.7,19.6,10.9,100,70,35,27.09,26.71,21,2,21,0.00